Location: Oberwangen
(47.4286°N, 8.9679°E)
Time: 20:43:01
(UTC+00:00)

Cosmos 1953 Rocket - Pass Details

Date: 23 October 2021
Orbit: 603 x 635 km, 82.5° (Epoch: 03 December)

Event Time Altitude Azimuth Distance (km) Brightness Sun altitude
Rises 18:02:51 0° 360° (N) 2,946 7.1 -17.7°
Reaches altitude 10° 18:05:24 10° 12° (NNE) 2,031 6.1 -18.2°
Enters shadow 18:07:41 22° 38° (NE) 1,391 5.0 -18.6°
